#timestamp,LO_Frequency,Hit,StdDev 
1516730415.7,286047050.2,N
1516730435.5,286047050.2,N
1516730455.4,286047050.2,N
1516730475.2,286047049.8,N
1516730495.0,286047049.7,N
1516730495.9,286047049.7,N
1516730515.8,286047050.1,N
1516730535.6,286047050.1,N
1516730555.4,286047049.4,N
1516730575.3,286047052.2,Y
1516730595.1,286047008.5,P
1516730615.8,286047008.5,N
1516730635.7,286047007.8,N
1516730655.5,286047008.4,N
1516730675.3,286047007.8,N
1516730695.2,286047007.8,N
1516730715.9,286047007.7,N
1516730735.7,286047007.7,N
1516730755.6,286047007.7,N
1516730775.4,286047008.3,N
1516730795.2,286047010.8,N
1516730815.0,286047009.0,N
1516730816.0,286047009.0,N
1516730835.8,286047010.2,N
1516730855.6,286047010.7,N
1516730875.4,286047008.0,N
1516730895.3,286047010.7,N
1516730915.1,286047010.4,N
1516730935.8,286047010.1,N
1516730955.7,286047008.0,N
1516730975.5,286047010.2,N
1516730995.3,286047010.7,N
1516731015.2,286047010.4,N
1516731035.9,286047010.8,N
1516731055.7,286047010.4,N
1516731075.6,286047010.4,N
1516731095.4,286047010.7,N
1516731115.2,286047007.9,N
1516731135.0,286047010.7,N
1516731135.9,286047010.7,N
1516731155.8,286047010.7,Y
1516731175.6,286047001.0,P
1516731195.4,286047000.0,N
1516731215.3,286047001.0,N
1516731235.1,286047000.7,N
1516731255.8,286047001.0,N
1516731275.7,286046998.2,N
1516731295.5,286047001.0,N
1516731315.3,286047001.0,N
1516731335.2,286047000.7,N
1516731355.9,286047000.7,N
1516731375.7,286047000.8,N
1516731395.6,286047000.7,N
1516731415.4,286047001.0,N
1516731435.2,286047000.7,N
1516731455.1,286047000.7,N
1516731456.0,286047000.7,N
1516731475.8,286047000.8,N
1516731495.6,286047000.7,N
1516731515.4,286047000.8,N
1516731535.3,286047000.8,N
1516731555.1,286047000.8,N
1516731575.8,286046998.3,N
1516731595.7,286047001.1,N
1516731615.5,286047001.1,N
1516731635.3,286046998.6,N
1516731655.2,286047001.1,N
1516731675.9,286046998.6,N
1516731695.7,286047001.1,N
1516731715.6,286047001.1,N
1516731735.4,286047001.2,N
1516731755.2,286047000.5,N
1516731775.1,286047001.1,N
1516731776.0,286047001.1,N
1516731795.8,286047001.2,N
1516731815.6,286047001.2,N
1516731835.5,286046998.1,N
1516731855.3,286046998.4,N
1516731875.1,286046998.1,N
1516731895.8,286046998.7,N
1516731915.7,286046998.2,N
1516731935.5,286047000.6,N
1516731955.3,286047000.6,N
1516731975.2,286047000.6,N
1516731995.9,286047000.9,N
1516732015.7,286046998.4,N
1516732035.6,286046999.9,N
1516732055.4,286047000.9,N
1516732075.2,286047001.0,N
1516732095.1,286047000.0,N
1516732096.0,286047000.0,N
1516732115.8,286047001.0,N
1516732135.6,286047001.0,N
1516732155.5,286046998.2,N
1516732175.3,286046998.8,N
1516732195.1,286046998.5,N
1516732215.8,286046998.5,N
1516732235.7,286046998.2,N
1516732255.5,286046998.2,N
1516732275.3,286046998.5,N
1516732295.2,286046998.8,N
1516732315.0,286046998.5,N
1516732315.9,286046998.5,N
1516732335.7,286046998.2,N
1516732355.6,286046998.8,N
1516732375.4,286046998.9,N
1516732395.2,286046998.8,N
1516732415.1,286046998.2,N
1516732416.0,286046998.2,N
1516732435.8,286047001.0,N
1516732455.6,286046998.5,N
1516732475.5,286046998.5,N
1516732495.3,286046998.2,N
1516732515.1,286046998.2,N
1516732535.9,286046998.1,N
1516732555.7,286047001.1,N
1516732575.5,286047001.1,N
1516732595.4,286046998.3,N
1516732615.2,286047001.1,N
1516732635.0,286047000.5,N
1516732635.9,286047000.5,N
1516732655.7,286047000.8,N
1516732675.6,286047001.1,N
1516732695.4,286046998.3,N
1516732715.2,286047000.8,N
1516732735.1,286047000.7,N
1516732736.0,286047000.7,N
1516732755.8,286047000.7,N
1516732775.6,286047000.8,N
1516732795.5,286046998.5,N
1516732815.3,286047001.0,N
1516732835.1,286047001.0,N
1516732855.9,286046998.5,N
1516732875.7,286047000.7,N
1516732895.5,286047000.8,N
1516732915.4,286047000.8,N
1516732935.2,286047000.8,N
1516732955.0,286047000.8,N
1516732955.9,286047000.8,N
1516732975.8,286047000.8,N
1516732995.6,286047000.8,N
1516733015.4,286046998.6,N
1516733035.2,286046998.5,N
1516733055.1,286047000.8,N
1516733056.0,286047000.8,N
1516733075.8,286047000.8,N
1516733095.6,286046998.5,N
1516733115.5,286046998.5,N
1516733135.3,286047000.7,N
1516733155.1,286046998.3,N
1516733175.9,286047000.8,N
1516733195.7,286047001.2,N
1516733215.5,286047001.2,N
1516733235.4,286046998.4,N
1516733255.2,286047001.1,N
1516733275.0,286047001.1,N
1516733275.9,286047001.1,N
1516733295.8,286047001.2,N
1516733315.6,286046998.3,N
1516733335.4,286047000.6,N
1516733355.3,286046998.4,N
1516733375.1,286047001.2,N
1516733376.0,286047001.2,N
1516733395.8,286047001.2,N
1516733415.7,286046998.3,N
1516733435.5,286047001.2,N
1516733455.3,286047001.2,N
1516733475.1,286047001.2,N
1516733495.9,286046998.1,N
1516733515.7,286047001.2,N
1516733535.5,286046998.1,N
1516733555.4,286047001.2,N
1516733575.2,286046998.1,N
1516733595.0,286047001.2,N
1516733595.9,286047001.2,N
1516733615.8,286046998.4,N
1516733635.6,286047000.6,N
1516733655.4,286047001.2,N
1516733675.3,286047001.1,N
1516733695.1,286047001.1,N
1516733696.0,286047001.1,N
1516733715.8,286046998.5,N
1516733735.7,286047000.7,N
1516733755.5,286047000.8,N
1516733775.3,286047000.8,N
1516733795.1,286047001.1,N
1516733815.9,286047001.1,N
1516733835.7,286047000.8,N
1516733855.5,286047000.4,N
1516733875.4,286047001.1,N
1516733895.2,286047000.5,N
1516733915.0,286047000.5,N
1516733915.9,286047000.5,N
1516733935.8,286047001.1,N
1516733955.6,286047000.5,N
1516733975.4,286047000.5,N
1516733995.3,286047000.2,N
